Flag for Slovenia Weather past 2 weeks in Kranj, Slovenia

Now
72 °F

Partly sunny.


Feels Like: 75 °F
Forecast: 58 / 83 °F
Wind: 3 mph from East

Location: Ljubljana Airport / Brnik

Current Time: Jun 30, 2015 at 10:58:12 AM

Latest Report: Jun 30, 2015 at 10:30 AM


Visibility: N/A

Pressure: 30.18 "Hg

Humidity: 69%

Dew point: 61 °F

Location of KranjLocation

Historic Weather in Kranj — Graph

°F

Kranj temperature yesterday

Maximum temperature yesterday: 75 °F (at 4:00 PM)
Minimum temperature yesterday: 54 °F (at 4:30 AM)
Average temperature yesterday: 66 °F

Past Weeks' High & Low Weather Summary

 TemperatureHumidityPressure
High77 °F (Jun 15, 12:00 PM)100% (Jun 16, 6:00 AM)30.27 "Hg (Jun 16, 6:00 AM)
Low45 °F (Jun 18, 5:00 AM)39% (Jun 26, 3:30 PM)29.77 "Hg (Jun 23, 8:30 AM)
Average61 °F79%30.06 "Hg
* Reported Jun 15 9:00 AM — Jun 30 9:30 AM, Kranj, Weather by CustomWeather, © 2015

Note: Actual official high and low records may vary slightly from our data, if they occured in-between our weather recording intervals... More about our weather records

Advertising

Kranj weather history for previous 24 hours

 ConditionsComfort  
Time TempWeatherWind HumidityBarometerVisibility
9:30 AM
Tue, Jun 30
68 °FPartly sunny.1 mph78%30.21 "HgN/A
9:00 AM64 °FPartly sunny.2 mph78%30.21 "HgN/A
8:30 AM64 °FPartly sunny.1 mph83%30.21 "HgN/A
8:00 AM63 °FScattered clouds.1 mph83%30.21 "HgN/A
7:30 AM61 °FScattered clouds.1 mph88%30.21 "HgN/A
7:00 AM59 °FScattered clouds.5 mph94%30.18 "HgN/A
6:30 AM57 °FPassing clouds.3 mph100%30.18 "HgN/A
6:00 AM57 °FPassing clouds.2 mph94%30.18 "HgN/A
5:30 AM57 °FPassing clouds.No wind100%30.18 "HgN/A
5:00 AM57 °FPassing clouds.No wind100%30.18 "HgN/A
4:30 AM57 °FPassing clouds.5 mph100%30.18 "HgN/A
4:00 AM57 °FPassing clouds.5 mph100%30.18 "HgN/A
3:30 AM57 °FPassing clouds.5 mph100%30.21 "HgN/A
3:00 AM59 °FPassing clouds.5 mph100%30.21 "HgN/A
2:30 AM61 °FPassing clouds.3 mph94%30.21 "HgN/A
2:00 AM61 °FPassing clouds.3 mph100%30.21 "HgN/A
1:30 AM61 °FSprinkles. Partly cloudy.6 mph100%30.18 "HgN/A
1:00 AM61 °FPartly cloudy.2 mph100%30.21 "HgN/A
12:30 AM63 °FPartly cloudy.1 mph94%30.18 "HgN/A
12:00 AM63 °FSprinkles. Passing clouds.12 mph94%30.18 "HgN/A
11:30 PM
Mon, Jun 29
63 °FSprinkles. Passing clouds.7 mph94%30.18 "HgN/A
11:00 PM63 °FPassing clouds.5 mph94%30.18 "HgN/A
10:30 PM64 °FThunderstorms. Passing clouds.6 mph88%30.18 "HgN/A
10:00 PM64 °FPassing clouds.1 mph83%30.18 "HgN/A
9:30 PM64 °FPassing clouds.1 mph88%30.15 "HgN/A
9:00 PM68 °FPassing clouds.No wind73%30.15 "HgN/A
8:30 PM70 °FPassing clouds.No wind69%30.15 "HgN/A
8:00 PM73 °FPassing clouds.1 mph61%30.15 "HgN/A
7:30 PM73 °FPassing clouds.2 mph61%30.15 "HgN/A
7:00 PM73 °FPassing clouds.2 mph50%30.15 "HgN/A
6:30 PM73 °FPassing clouds.2 mph53%30.15 "HgN/A
6:00 PM73 °FScattered clouds.2 mph53%30.15 "HgN/A
5:30 PM73 °FPartly sunny.2 mph50%30.15 "HgN/A
5:00 PM73 °FPartly sunny.2 mph53%30.15 "HgN/A
4:30 PM75 °FPartly sunny.3 mph50%30.15 "HgN/A
4:00 PM75 °FBroken clouds.2 mph47%30.15 "HgN/A
3:30 PM73 °FBroken clouds.3 mph47%30.15 "HgN/A
3:00 PM73 °FPartly sunny.2 mph50%30.18 "HgN/A
2:30 PM73 °FPartly sunny.1 mph53%30.18 "HgN/A
2:00 PM73 °FBroken clouds.2 mph50%30.18 "HgN/A
1:30 PM72 °FPartly sunny.No wind53%30.18 "HgN/A
1:00 PM72 °FBroken clouds.2 mph53%30.18 "HgN/A
12:30 PM72 °FBroken clouds.2 mph53%30.18 "HgN/A
12:00 PM72 °FBroken clouds.1 mph53%30.18 "HgN/A
11:30 AM72 °FBroken clouds.5 mph50%30.18 "HgN/A
11:00 AM70 °FPartly sunny.3 mph53%30.21 "HgN/A
10:30 AM70 °FPartly sunny.1 mph64%30.21 "HgN/A
10:00 AM68 °FPartly sunny.1 mph64%30.21 "HgN/A
Weather by CustomWeather, © 2015

See weather overviewHow to use our weather pages